Location: Unspecified
(50.1700°N, 6.8600°E)
Time: 22:38:01
(UTC+00:00)

Cosmos 2251 Rocket - Pass Details

Date: 24 January 2019
Orbit: 764 x 793 km, 74.0° (Epoch: 19 April)

Event Time Altitude Azimuth Distance (km) Brightness Sun altitude
Rises 05:33:21 0° 212° (SSW) 3,229 6.5 -16.4°
Reaches altitude 10° 05:35:45 10° 216° (SW) 2,303 5.7 -16.1°
Maximum altitude 05:40:55 63° 297° (WNW) 857 3.5 -15.2°
Drops below altitude 10° 05:46:08 10° 19° (NNE) 2,312 6.1 -14.4°
Sets 05:48:33 0° 23° (NNE) 3,243 6.9 -14.1°
